sat.trackr.live / text

‹ back to catalog

ELEKTRO-L 4

NORAD 55506 · 2023-016A

PAYLOAD ACTIVE UNKNOWN

§ Identity

Operator
Country
CIS
Launch date
2023-02-05
Launch site
TYMSC
Launch vehicle
Mass (kg)
RCS (m²)

Purposes: comms

External: N2YO · Heavens-Above · Gunter

§ Orbital elements

Epoch: 2026-05-24T20:46:59.399328Z

Period
1,436.10 min
Inclination
0.0854°
Eccentricity
0.0000480
Mean motion
1.00271893 rev/d
Perigee alt
35,784.5 km
Apogee alt
35,788.6 km
Semi-major
42,164.7 km
B*
0.0000e+0
RAAN
208.6794°
Arg perigee
331.5353°
Mean anomaly
179.7817°
Rev number
1,209

§ Raw data

ELEKTRO-L 41 55506U 23016A   26144.86596527 -.00000061  00000+0  00000+0 0  99942 55506   0.0854 208.6794 0000480 331.5353 179.7817  1.00271893 12094

JSON: /api/v1/satellites/55506 · /tle

For live sub-satellite position, see the globe view (requires WebGL).

§ Visibility from observer

Set your observer location to see the next 7 days of passes ≥ 10°. The values pass through the URL so the page stays shareable.

No JS? Fill the form by hand. The geolocation button needs JavaScript.